Tracking 19212 objects as of 17-Jul-2018
HD Live streaming from Space Station
objects crossing your sky now

FENGYUN 1C DEB

Track FENGYUN 1C DEB now!
10-day predictions


NORAD ID: 30148
Int'l Code: 1999-025TD
Perigee: 852.4 km
Apogee: 1,058.7 km
Inclination: 99.4 °
Period: 104.0 minutes
Semi major axis: 7326 km
RCS: 0.0451 m2 (small)
Launch date: May 10, 1999
Source: People's Republic of China (PRC)
Launch site: Taiyaun Space Center, China (TSC)

Note: This is SATELLITE DEBRIS
aabbcc
Your satellite tracking list
Your tracking list is empty




NASA's NSSDC Master Catalog

Two Line Element Set (TLE):
1 30148U 99025TD  18198.48964215  .00000170  00000-0  17835-3 0  9992
2 30148  99.3819 292.8296 0140831 194.3164 230.2535 13.84371306580683
Source of the keplerian elements: AFSPC